Temp
12 13 12 12 13 14 14 14 14 14 14 14 13 13 13 13 13 13 13 13 13 12 12 11 11 11 11 11 10 12 12 12 12
13 13 13 13 13 14 14 14 14 14 14 14 14 14 13 13 13 13 13 13 13 13 12 11 11 11 11 11 11 11 10 11 11
13 13 13 13 14 14 14 14 14 14 14 14 14 13 13 13 13 13 13 13 13 13 13 12 11 11 11 12 12 11 11 11 11
13 13 13 14 14 14 14 14 13 13 13 13 13 13 12 12 12 12 12 12 12 12 12 12 12 12 11 12 12 12 12 11 11
13 14 14 14 13 13 13 13 13 13 12 12 12 12 12 12 12 12 12 12 12 12 12 12 12 12 12 12 12 12 12 11 11
14 14 13 13 13 13 12 12 12 12 12 12 12 12 12 12 12 13 13 12 12 12 13 12 12 12 12 12 12 12 12 12 11
14 13 13 13 12 12 12 12 12 12 12 13 12 13 13 12 13 12 12 13 13 12 12 12 12 12 12 12 12 12 12 12 12
13 13 13 12 12 12 12 12 12 12 12 12 12 12 12 12 12 12 12 12 12 12 12 12 12 12 12 12 12 12 12 12 12
13 12 12 12 13 12 12 12 12 12 12 12 12 12 12 12 12 11 11 11 11 11 11 11 11 11 11 11 11 10 11 11 11
12 12 12 12 12 12 12 12 12 12 12 12 12 12 12 12 12 11 11 11 11 11 11 11 10 10 10 10 10 11 10 10 10
12 12 12 12 12 12 12 11 11 12 12 12 12 12 12 12 11 11 11 10 10 10 10 10 10 10 10 10 10 10 10 10 10
12 12 12 11 11 11 11 12 12 12 12 12 12 11 11 11 11 10 10 9 9 9 9 9 9 9 9 9 9 10 10 10 10
12 12 11 11 11 12 12 12 12 11 11 11 11 10 10 10 9 9 9 9 9 9 9 9 9 8 8 9 9 9 9 9 9
11 11 11 12 12 11 11 11 11 10 10 10 10 9 10 9 9 9 8 9 9 9 8 8 7 8 8 8 8 8 8 8 8
11 12 11 11 11 11 10 10 9 8 8 8 9 9 9 9 8 8 8 8 8 7 7 7 7 7 7 7 7 7 7 7 7
11 11 11 11 10 10 9 8 8 7 7 7 8 8 8 8 7 8 8 7 7 7 7 6 6 7 6 7 6 6 6 5 3
11 11 10 10 10 9 8 7 7 6 5 5 5 5 6 7 6 7 6 6 5 6 5 6 5 5 6 5 5 5 4 2 0
11 10 10 9 9 8 7 6 6 5 4 4 3 3 2 2 4 4 4 4 5 5 5 5 4 4 4 3 3 3 2 -0 -1
10 10 9 8 8 7 6 6 5 4 4 4 3 2 1 -0 0 2 3 3 3 3 3 3 3 2 2 0 -1 -1 -2 -2 -2
9 9 8 8 7 7 6 5 4 4 3 2 2 2 1 0 -1 -2 -0 2 2 1 1 1 1 1 -0 -2 -2 -3 -3 -3 -3
Height
1506 1509 1507 1507 1506 1505 1505 1505 1507 1506 1506 1505 1505 1504 1504 1503 1502 1501 1501 1500 1499 1499 1499 1501 1501 1500 1500 1500 1500 1500 1500 1501 1501
1508 1508 1508 1508 1507 1506 1506 1506 1507 1506 1506 1505 1505 1504 1504 1503 1502 1500 1500 1499 1498 1498 1498 1498 1499 1499 1499 1498 1497 1498 1497 1497 1498
1507 1508 1508 1508 1507 1506 1506 1505 1506 1506 1506 1505 1505 1504 1503 1503 1501 1500 1500 1499 1498 1497 1497 1496 1497 1497 1496 1495 1494 1494 1495 1495 1495
1507 1507 1508 1508 1508 1507 1506 1506 1506 1506 1506 1505 1504 1504 1503 1502 1501 1500 1499 1498 1497 1496 1495 1495 1494 1494 1494 1493 1492 1491 1490 1491 1491
1506 1507 1508 1508 1508 1507 1507 1506 1506 1506 1506 1505 1504 1503 1502 1501 1500 1498 1497 1496 1495 1494 1494 1493 1492 1492 1491 1490 1488 1487 1487 1487 1486
1506 1506 1507 1508 1508 1507 1507 1507 1507 1506 1505 1504 1503 1502 1500 1499 1497 1496 1494 1493 1492 1491 1490 1489 1488 1487 1488 1487 1486 1485 1484 1483 1482
1506 1506 1506 1508 1508 1506 1506 1506 1506 1505 1504 1503 1502 1499 1498 1496 1495 1493 1491 1490 1489 1488 1487 1486 1484 1484 1483 1482 1481 1480 1479 1478 1478
1505 1505 1506 1507 1507 1506 1505 1505 1505 1504 1502 1501 1499 1497 1495 1494 1492 1490 1489 1488 1487 1485 1484 1483 1481 1480 1479 1478 1477 1475 1474 1473 1473
1504 1504 1505 1505 1506 1505 1504 1504 1504 1502 1500 1499 1497 1495 1493 1491 1489 1487 1485 1484 1483 1482 1480 1478 1478 1476 1474 1474 1473 1470 1469 1468 1466
1503 1504 1503 1504 1505 1504 1504 1503 1501 1500 1498 1496 1495 1492 1490 1488 1486 1484 1482 1480 1479 1478 1476 1476 1473 1471 1470 1469 1468 1466 1465 1463 1462
1503 1502 1503 1503 1503 1503 1502 1501 1499 1498 1496 1495 1492 1490 1487 1484 1482 1480 1478 1476 1475 1473 1472 1471 1469 1467 1466 1465 1463 1461 1460 1458 1457
1503 1502 1502 1502 1501 1501 1500 1498 1497 1495 1493 1491 1489 1486 1483 1480 1478 1476 1474 1473 1471 1470 1468 1467 1464 1463 1462 1460 1458 1456 1454 1452 1451
1502 1501 1501 1501 1499 1499 1498 1496 1493 1491 1489 1487 1485 1482 1479 1477 1475 1474 1472 1471 1469 1466 1464 1462 1460 1458 1456 1454 1453 1451 1448 1446 1444
1501 1500 1499 1499 1498 1497 1495 1492 1489 1487 1485 1483 1482 1479 1476 1474 1473 1471 1470 1468 1466 1463 1461 1459 1456 1454 1451 1449 1447 1444 1441 1438 1436
1499 1499 1498 1497 1495 1494 1491 1489 1486 1484 1481 1479 1477 1475 1472 1471 1470 1468 1467 1464 1462 1460 1457 1455 1452 1449 1446 1443 1440 1437 1433 1431 1428
1498 1498 1497 1495 1493 1491 1488 1486 1484 1481 1478 1474 1472 1471 1468 1468 1466 1465 1463 1461 1458 1455 1453 1449 1446 1443 1440 1436 1433 1429 1426 1422 1420
1497 1496 1495 1493 1491 1489 1486 1484 1481 1479 1476 1473 1469 1466 1465 1463 1464 1461 1458 1455 1453 1451 1448 1443 1440 1436 1432 1429 1425 1421 1418 1415 1414
1496 1495 1493 1492 1489 1487 1484 1481 1479 1477 1476 1474 1473 1469 1465 1457 1452 1453 1450 1448 1444 1442 1439 1435 1431 1428 1424 1421 1417 1414 1410 1407 1405
1494 1493 1491 1489 1487 1485 1482 1480 1478 1476 1474 1473 1472 1470 1467 1460 1447 1443 1441 1438 1435 1432 1429 1426 1423 1420 1416 1412 1409 1406 1402 1399 1397
1492 1490 1489 1486 1485 1483 1480 1478 1477 1475 1473 1470 1467 1464 1461 1459 1453 1436 1431 1429 1427 1424 1421 1418 1415 1412 1409 1405 1401 1399 1395 1392 1390
Wind_Speed
2 4 6 7 7 7 8 7 5 4 4 3 2 4 5 7 8 8 8 8 8 11 10 9 14 11 11 11 12 15 15 15 16
2 4 4 4 5 7 8 8 8 7 7 8 8 7 8 9 11 11 10 9 8 7 10 9 11 13 13 12 12 14 14 16 19
6 5 3 2 4 6 7 7 7 7 7 7 7 7 8 9 10 10 10 10 10 9 9 8 10 12 13 11 12 13 16 17 17
5 4 1 2 4 6 7 7 6 6 6 7 7 7 7 8 9 9 9 10 11 11 12 10 8 10 13 14 14 15 15 14 17
4 2 2 3 5 6 7 6 5 5 6 7 8 9 9 10 11 9 7 9 10 10 12 13 11 12 15 16 17 18 19 19 18
5 3 3 4 5 5 6 6 6 7 8 8 9 10 10 11 11 12 10 12 12 13 13 16 17 18 20 20 19 19 20 19 20
3 3 2 2 2 3 3 5 8 9 11 11 12 12 13 12 12 13 13 11 12 13 15 16 17 19 19 20 21 22 22 21 21
2 2 0 2 4 5 6 7 9 12 15 15 13 13 13 15 16 16 16 15 16 16 18 20 22 21 22 19 18 20 23 24 26
1 2 3 4 7 7 9 12 14 14 17 16 16 16 16 17 17 17 18 18 18 19 21 21 21 17 14 15 14 15 18 18 17
4 2 4 6 8 11 13 14 16 18 18 17 15 16 18 19 19 20 20 21 21 20 20 19 14 16 14 12 13 18 16 17 17
5 5 6 8 10 12 15 18 18 15 16 17 18 20 21 22 21 21 20 20 18 17 17 15 15 16 16 18 17 21 22 23 24
8 7 9 10 11 15 15 15 17 19 20 21 20 20 19 18 17 16 14 14 14 15 17 17 18 18 18 19 21 23 26 28 29
8 9 9 11 10 11 15 18 20 21 22 21 18 17 16 14 12 12 15 17 18 19 20 20 19 19 21 23 25 28 29 32 33
8 9 6 7 10 14 17 18 20 20 18 17 15 16 15 14 14 14 11 18 17 19 18 16 18 21 24 26 27 28 29 30 32
7 4 5 8 11 14 15 16 17 18 19 19 18 14 14 11 16 15 17 18 22 16 15 24 26 26 27 28 28 29 30 30 31
4 4 6 10 14 17 17 15 15 16 20 22 22 14 10 18 13 10 24 20 20 16 29 23 29 30 29 30 30 31 32 31 26
3 4 8 12 16 16 15 14 14 15 19 21 19 12 16 4 21 24 22 22 23 31 28 32 32 32 32 32 33 34 33 30 26
3 5 9 13 16 15 15 14 15 15 15 17 13 9 7 35 16 33 24 33 32 36 35 35 34 32 34 35 35 34 33 30 31
4 7 10 14 15 15 14 14 15 16 17 17 16 15 18 15 20 24 43 36 43 43 42 39 36 38 37 34 32 33 31 32 30
6 8 11 14 16 15 14 14 15 16 17 19 22 24 24 22 20 35 40 48 47 48 42 44 41 36 34 33 35 32 31 29 28
Wind_Direction
297 25 23 25 50 61 58 55 44 31 16 353 354 355 348 349 351 348 337 314 290 269 258 254 268 297 305 269 263 250 253 266 284
221 288 334 14 39 47 47 42 33 29 22 18 11 3 5 4 359 356 353 349 334 293 275 265 269 281 288 284 278 282 273 270 265
197 236 284 11 39 41 39 37 31 28 20 19 15 13 6 4 6 7 8 2 355 349 328 299 260 279 290 294 282 271 265 274 271
186 215 248 26 27 32 34 42 36 33 31 26 15 11 11 8 6 5 8 360 351 344 335 321 306 286 289 298 306 304 295 267 268
180 169 95 42 43 46 44 34 27 19 15 5 351 345 339 337 336 330 332 326 322 317 319 314 310 302 303 306 309 308 301 287 274
134 121 83 64 53 51 34 20 2 352 348 338 325 316 319 310 312 308 303 306 302 297 296 289 289 291 287 289 294 297 296 296 282
141 123 98 50 32 18 350 344 319 320 320 311 303 294 293 295 294 290 294 286 288 283 285 291 288 287 291 295 292 288 288 285 279
143 117 43 323 314 312 309 324 315 314 310 307 303 300 300 301 300 296 296 295 292 289 290 291 290 290 289 295 291 287 283 280 279
218 249 270 301 309 308 310 309 309 303 300 300 299 297 296 297 297 295 294 293 292 291 291 290 292 299 295 279 289 290 290 291 283
241 266 295 307 300 308 307 305 297 297 295 296 297 296 294 294 293 292 292 292 292 293 288 292 287 281 282 279 277 279 285 286 286
257 267 280 287 301 302 294 294 296 296 296 296 295 295 294 293 292 290 289 289 290 290 290 284 284 280 281 281 280 277 277 285 287
270 266 274 288 285 292 298 299 299 297 295 296 297 296 294 293 289 288 289 289 291 292 291 289 287 285 285 284 284 283 283 284 284
271 265 268 281 292 298 298 298 298 299 302 303 304 300 296 288 280 284 290 292 292 294 295 290 288 288 288 286 287 285 285 282 282
264 264 278 292 304 305 307 310 309 310 312 313 312 305 289 277 268 290 291 311 301 298 292 294 295 297 296 294 292 290 287 286 285
236 248 294 313 320 323 322 322 321 322 322 322 321 313 291 267 275 274 306 302 316 296 294 304 294 296 298 296 293 290 288 287 286
218 280 319 332 334 332 330 328 325 326 328 332 332 334 283 292 271 259 307 307 303 284 308 302 303 301 299 298 296 294 295 295 300
244 315 337 341 339 336 331 330 334 339 340 346 347 332 326 210 309 294 300 311 308 307 308 310 308 306 303 302 301 299 297 299 304
269 325 335 338 341 337 335 334 336 340 345 348 354 336 311 318 319 313 311 313 312 314 315 313 311 309 307 305 302 300 301 303 304
286 318 330 338 339 336 331 331 332 335 336 338 332 324 314 316 314 309 312 315 314 316 318 316 314 313 310 309 306 307 306 306 304
283 318 330 334 333 331 328 326 327 329 328 328 327 324 320 318 301 304 310 311 314 315 315 315 313 312 310 308 308 306 304 302 300